Huntsville, AL

1:22 PM CDT on March 29, 2017 (GMT -0500)
Huntsville International

Weather History for KHSV - June, 2013

Change the Weather History Date:

Monday, June 17, 2013

  Actual Average Record
Temperature  
Mean Temperature 82 °F 78 °F  
Max Temperature 93 °F 89 °F 103 °F (1918)
Min Temperature 70 °F 68 °F 51 °F (1917)
Degree Days  
Heating Degree Days 0 0  
Month to date heating degree days 0 0  
Since 1 June heating degree days 0 0  
Since 1 July heating degree days 3042 3001  
Cooling Degree Days 17 13  
Month to date cooling degree days 226 195  
Year to date cooling degree days 459 458  
Since 1 June cooling degree days 226 195  
Growing Degree Days 32 (Base 50)    
Moisture  
Dew Point 69 °F    
Average Humidity 67    
Maximum Humidity 93    
Minimum Humidity 41    
Precipitation  
Precipitation 0.38 in 0.14 in 1.27 in (1964)
Month to date precipitation 1.33 2.40  
Year to date precipitation 30.45 26.77  
Snow  
Snow 0.00 in - - ()
Month to date snowfall 0.0  
Since 1 June snowfall 0.0  
Since 1 July snowfall 0.7  
Snow Depth 0.00 in    
Sea Level Pressure  
Sea Level Pressure 29.97 in    
Wind  
Wind Speed 6 mph (SSE)    
Max Wind Speed 35 mph    
Max Gust Speed 44 mph    
Visibility 9 miles    
Events Fog , Rain , Thunderstorm    
T = Trace of Precipitation, MM = Missing Value Source: NWS Daily Summary

Daily Weather History Graph

Daily Weather History Graph

Search for Another Location

Airport or City:

Trip Planner

Search our weather history database for the weather conditions in past years. The results will help you decide how hot, cold, wet, or windy it might be!

Date:

Astronomy

Jun. 17, 2013 Rise Set
Actual Time 5:33 AM CDT 8:02 PM CDT
Civil Twilight 5:04 AM CDT 8:31 PM CDT
Nautical Twilight 4:27 AM CDT 9:08 PM CDT
Astronomical Twilight 3:47 AM CDT 9:48 PM CDT
Moon 1:52 PM CDT (6/17) 12:55 AM CDT (6/17)
Length of Visible Light 15h 27m
Length of Day
14h 28m
First Quarter, 60% of the Moon is Illuminated
Jun 17
First Quarter
Jun 23
Full
Jun 29
Last Quarter
Jul 8
New
Jul 15
First Quarter

Hourly Weather History & Observations

Time (CDT) Temp. Heat Index Dew Point Humidity Pressure Visibility Wind Dir Wind Speed Gust Speed Precip Events Conditions
12:53 AM 73.0 °F - 69.1 °F 87% 30.00 in 10.0 mi ESE 4.6 mph - N/A   Clear
1:53 AM 73.0 °F - 69.1 °F 87% 30.00 in 10.0 mi ESE 4.6 mph - N/A   Clear
2:53 AM 72.0 °F - 69.1 °F 91% 29.99 in 10.0 mi East 5.8 mph - 0.00 in Rain Light Rain
3:53 AM 73.0 °F - 69.1 °F 87% 29.99 in 10.0 mi SE 3.5 mph - 0.00 in   Mostly Cloudy
4:53 AM 72.0 °F - 69.1 °F 91% 29.97 in 10.0 mi ESE 5.8 mph - N/A   Mostly Cloudy
5:41 AM 71.6 °F - 69.8 °F 94% 30.01 in 10.0 mi East 3.5 mph - N/A Thunderstorm Mostly Cloudy
5:53 AM 72.0 °F - 69.1 °F 91% 29.99 in 10.0 mi East 3.5 mph - N/A   Mostly Cloudy
6:53 AM 72.0 °F - 70.0 °F 93% 29.99 in 9.0 mi Calm Calm - N/A   Scattered Clouds
7:53 AM 75.0 °F - 70.0 °F 84% 29.99 in 10.0 mi SE 4.6 mph - N/A   Partly Cloudy
8:53 AM 80.1 °F 83.8 °F 72.0 °F 76% 30.00 in 10.0 mi SSE 4.6 mph - N/A   Partly Cloudy
9:53 AM 84.0 °F 89.6 °F 72.0 °F 67% 29.99 in 10.0 mi SW 4.6 mph - N/A   Scattered Clouds
10:53 AM 86.0 °F 89.4 °F 68.0 °F 55% 30.00 in 10.0 mi WSW 5.8 mph - N/A   Scattered Clouds
11:53 AM 91.0 °F 94.3 °F 66.9 °F 45% 29.97 in 10.0 mi SW 8.1 mph - N/A   Scattered Clouds
12:53 PM 91.0 °F 93.0 °F 64.9 °F 42% 29.94 in 10.0 mi Variable 3.5 mph - N/A   Mostly Cloudy
1:16 PM 89.6 °F 92.2 °F 66.2 °F 46% 29.95 in 10.0 mi South 8.1 mph - N/A Thunderstorm Thunderstorm
1:40 PM 75.2 °F - 69.8 °F 83% 30.02 in 2.0 mi West 33.4 mph 43.7 mph 0.00 in Rain , Thunderstorm Heavy Thunderstorms and Rain
1:46 PM 71.6 °F - 69.8 °F 94% 30.04 in 0.5 mi West 20.7 mph 43.7 mph 0.02 in Fog , Rain , Thunderstorm Heavy Thunderstorms and Rain
1:53 PM 72.0 °F - 69.1 °F 91% 30.02 in 2.0 mi WNW 8.1 mph 32.2 mph 0.49 in Rain , Thunderstorm Heavy Thunderstorms and Rain
2:10 PM 71.6 °F - 69.8 °F 94% 30.00 in 6.0 mi NNW 5.8 mph - 0.05 in Rain , Thunderstorm Light Thunderstorms and Rain
2:53 PM 72.0 °F - 69.1 °F 91% 29.96 in 6.0 mi ENE 4.6 mph - 0.10 in Rain Light Rain
3:16 PM 71.6 °F - 69.8 °F 94% 29.97 in 10.0 mi ESE 11.5 mph - 0.01 in Rain , Thunderstorm Light Thunderstorms and Rain
3:34 PM 73.4 °F - 69.8 °F 88% 29.98 in 10.0 mi ESE 9.2 mph - 0.01 in   Overcast
3:53 PM 75.0 °F - 70.0 °F 84% 29.96 in 10.0 mi SE 6.9 mph - 0.01 in   Overcast
4:53 PM 79.0 °F - 68.0 °F 69% 29.95 in 10.0 mi East 5.8 mph - N/A   Mostly Cloudy
5:53 PM 77.0 °F - 71.1 °F 82% 29.94 in 10.0 mi SSE 8.1 mph - 0.00 in Rain Light Rain
6:53 PM 77.0 °F - 72.0 °F 84% 29.95 in 10.0 mi South 11.5 mph - 0.00 in   Mostly Cloudy
7:53 PM 73.9 °F - 70.0 °F 87% 29.94 in 10.0 mi SSW 5.8 mph - N/A   Mostly Cloudy
8:53 PM 73.0 °F - 70.0 °F 90% 29.92 in 10.0 mi SSE 9.2 mph - 0.00 in   Overcast
9:53 PM 72.0 °F - 69.1 °F 91% 29.91 in 10.0 mi ESE 4.6 mph - 0.00 in Rain Light Rain
10:53 PM 72.0 °F - 69.1 °F 91% 29.91 in 10.0 mi South 3.5 mph - 0.00 in   Overcast
11:53 PM 71.1 °F - 69.1 °F 93% 29.90 in 10.0 mi SSE 4.6 mph - N/A   Overcast